Погода Нижне-Усинское

Погода Нижне-Усинское : погода сейчас, прогноз погоды и архив. Всё, что Вы хотите узнать о погоде Нижне-Усинское!

Поиск расширенной информации на нашем сайте:

Другие новости

Новости СМИ2

Главная страница сайта

Новости сайта

03.07.2017

Напоминаем, что на нашем специализированном сайте Метеоцентр.Азия вы можете получить высокодетализированные автоматические прогнозы погоды по пунктам России, СНГ и мира в авиационном формате (включающие направление и скорость ветра, видимость, явления погоды, количество и форму облачности, нижнюю и верхнюю границу облачности).


Погода Нижне-Усинское - сегодня

Время (UTC), дата Ветер
(°,м/с) 
Видим.   Явления Облачность Т
(°С)
Тd
(°С)
f(%) Тe
(°С)
Pmin
(гПа)
dP
(гПа)
Po
(мм)
O2
(г/м3)
Тmin Tmax R s Состояние
почвы
18 15.10.17 тихо ()   н/о    ясно 
-9 -9.7 95 -9  1032.9  1.5  712  297           
21 15.10.17 тихо ()   н/о    ясно 
-10.3 -10.9 95 -10  1033.3  -0.1  712  299           
00 16.10.17 тихо ()   20000 м    8/8 1000 м 
[Sc]
-9.3 -9.6 98 -9  1032.9  -0.1  712  298  -10.4         
03 16.10.17 тихо ()   20000 м    9/6 1000 м средняя, верхняя 
[Sc|Ac trans|Ci sp]
-2.8 -4.8 86 -3  1029.4  -1.2  711  290           
06 16.10.17 тихо ()   20000 м    9/8 1000 м средняя, верхняя 
[Sc|Ac trans|Ci sp]
+2.3 -4.8 59 +2  1025.7  -2  709  284           
09 16.10.17 тихо ()   20000 м    9/6 1000 м кучево-дожд., средняя, верхняя 
[Cb cap|Ac trans|Ci sp]
+5 -4.8 49 +5  1023  -1.7  708  281           
12 16.10.17 340 (С) н/о    9/6 1000 м кучево-дожд., средняя, верхняя 
[Cb cap|Ac trans|Ci sp]
+0.8 -3.1 75 +1  1023.6  -0.5  707  284    +5.1       
15 16.10.17 330 (СЗ) н/о    6/4 1000 м кучево-дожд., средняя, верхняя 
[Cb cap|Ac trans|Ci sp]
-1.6 -3.5 87 -3  1025.2  0.7  708  287           
18 16.10.17 320 (СЗ) н/о    8/6 1000 м кучево-дожд., средняя, верхняя 
[Cb cap|Ac trans|Ci sp]
-2 -3.5 89 -1  1025.5  0.2  708  288           
21 16.10.17 тихо ()   н/о    10/10 1000 м кучево-дожд. 
[Cb cap]
-2 -3.2 91 -2  1026.2  0.6  709  288           
00 17.10.17 тихо ()   20000 м    10/10 1000 м кучево-дожд. 
[Cb cap]
-1.8 -2.7 94 -2  1027.3  1.1  709  288  -2.5         
03 17.10.17 тихо ()   20000 м    9/6 1000 м кучево-дожд., средняя, верхняя 
[Cb cap|Ac trans|Ci sp]
+2.6 -2.3 70 +3  1027.4  1.4  710  284           
06 17.10.17 240 (ЮЗ) 20000 м    9/5 1000 м средняя, верхняя 
[Sc|Ac trans|Ci sp]
+7.4 -3 48 +8  1024.4  -1.5  709  279           
09 17.10.17 тихо ()   20000 м    9/5 1000 м средняя, верхняя 
[Sc|Ac trans|Ci sp]
+10.4 -2.4 41 +10  1021.5  -1.9  708  275           
12 17.10.17 тихо ()   н/о    6/6 1000 м 
[Sc]
+1.3 -2.2 77 +1  1025  0.7  708  284    +10.5       
15 17.10.17 тихо ()   н/о    3/3 1000 м 
[Sc]
-2.8 -3.5 95 -3  1027.4  1.1  709  289           
18 17.10.17 тихо ()   н/о    ясно 
-4.8 -5.1 98 -5  1027.7  -0.3  709  291           
21 17.10.17 тихо ()   н/о    ясно 
-6.4 -6.9 96 -6  1027.8  -0.4  709  293           
00 18.10.17 тихо ()   20000 м    ясно 
-7.4 -7.6 98 -7  1028.1  709  294  -7.5         
03 18.10.17 тихо ()   20000 м    4/4 1000 м 
[Sc]
-2.7 -3.4 95 -3  1027.5  0.9  709  289           
06 18.10.17 тихо ()   20000 м    8/8 1000 м 
[Sc]
+6.4 -0.4 62 +6  1020.7  -3.8  707  278           
09 18.10.17 тихо ()   20000 м    9/6 1000 м кучево-дожд., средняя, верхняя 
[Cb cap|Ac trans|Ci sp]
+9.3 -0.9 49 +9  1017.2  -2.5  705  275           
12 18.10.17 тихо ()   н/о    8/4 1000 м средняя 
[Sc|Ac trans]
+1.4 -1.4 82 +1  1019.2  -0.2  705  282    +10.4       
15 18.10.17 тихо ()   н/о    3/3 1000 м 
[Sc]
-3.3 -4 95 -3  1021.3  0.6  705  288           
18 18.10.17 тихо ()   н/о    4/4 1000 м 
[Sc]
-5 -5.3 98 -5  1021.9  705  290           
Время (UTC), дата Ветер
(°,м/с) 
Видим.   Явления Облачность Т
(°С)
Тd
(°С)
f(%) Тe
(°С)
Pmin
(гПа)
dP
(гПа)
Po
(мм)
O2
(г/м3)
Тmin Tmax R s Состояние
почвы

Для получения пояснительной информации подведите курсор к названию столбца.

ПОГОДА Нижне-Усинское - архив

Всё, что Вы хотите узнать о погоде Нижне-Усинское - удобно и подробно!

Выберите нужную дату (начиная с 1 января 2015* года) и нажмите кнопку "Найти".
Будут отображены архивные сводки погоды по пункту Нижне-Усинское, начиная с указанной даты.


Отображать данные в формате CSV (для использования в таблицах Excel)


Внимание! Наш архив погоды предназначен исключительно для личного некоммерческого использования в познавательных целях. Если Вам необходимы официальные справки о состоянии погоды (для производственных, юридических, коммерческих и т.п. целей), обращайтесь в органы Росгидромета.

*Примечание: данная дата относится к архиву по метеостанциям СССР (Россия, СНГ, Балтия).
Архив по метеостанциям Зарубежной Европы и Азии (кроме Китая) хранится 10 дней, по другим регионам земного шара (Китай, Африка, Америка, Австралия, Океания) - 1 день.

Нижне-Усинское - район местоположения метеостанции


Название, широта, долгота, высота метеостанции:
Нижне-Усинское 52.3°ш. 93°д. 660 м над ур. моря [Российская Федерация]

Дополнительная информация

В oтличие oт бoльшинства пoгoдных сайтoв мы публикуем пoдрoбную метеoинфoрмацию в детальнoм прoфессиoнальнoм фoрмате.

Характеристики температуры и влажнoсти вoздуха измеряются на высoте 2 м в тени вдали oт зданий и деревьев.
Скoрoсть ветра измеряется на высoте 10 м (на урoвне рoста челoвека скoрoсть ветра ниже в 1.5-2 раза). Если метеoстанция нахoдится в гoрoде или в лесу, тo скoрoсть ветра занижена на 2-4 м/с пo сравнению с oткрытым местoм. Скoрoсть ветра над акватoриями крупных рек и oзёр, а также на вершинах хoлмoв на 2-5 м/с выше, чем в oбычных услoвиях.
Атмoсфернoе давление в разных тoчках местнoсти мoжет значительнo oтличаться oт давления на метеoстанции, в зависимoсти oт услoвий рельефа (при пoдъёме на 10 м давление пoнижается примернo на 1 мм рт.ст.).